Fremont, MI

3:32 AM EDT on October 15, 2019 (GMT -0400)
Fremont

Weather History for KFFX - August, 2019

Change the Weather History Date:

Wednesday, August 21, 2019

  Actual Average (KMKG) Record (KMKG)
Temperature  
Mean Temperature 70 °F -  
Max Temperature 82 °F 78 °F 92 °F (1955)
Min Temperature 58 °F 57 °F 42 °F (2004)
Cooling Degree Days 6    
Growing Degree Days 20 (Base 50)    
Moisture  
Dew Point 65 °F    
Average Humidity 83    
Maximum Humidity 100    
Minimum Humidity 48    
Precipitation  
Precipitation 0.00 in - - ()
Sea Level Pressure  
Sea Level Pressure 29.93 in    
Wind  
Wind Speed 3 mph ()    
Max Wind Speed 16 mph    
Max Gust Speed 20 mph    
Visibility 6.2 miles    
Events Fog    
Averages and records for this station are not official NWS values.
T = Trace of Precipitation, MM = Missing Value Source: Averaged Metar Reports

Daily Weather History Graph

Daily Weather History Graph

Search for Another Location

Airport or City:

Astronomy

Aug. 21, 2019 Rise Set
Actual Time 6:55 AM EDT 8:38 PM EDT
Civil Twilight 6:25 AM EDT 9:08 PM EDT
Nautical Twilight 5:48 AM EDT 9:45 PM EDT
Astronomical Twilight 5:08 AM EDT 10:24 PM EDT
Moon 11:45 PM EDT (8/21) 12:40 PM EDT (8/21)
Length of Visible Light 14h 43m
Length of Day
13h 42m
Waning Gibbous, 69% of the Moon is Illuminated
Aug 21
Waning Gibbous
Aug 23
Last Quarter
Aug 30
New
Sep 5
First Quarter
Sep 14
Full

Hourly Weather History & Observations

Time (EDT) Temp. Heat Index Dew Point Humidity Pressure Visibility Wind Dir Wind Speed Gust Speed Precip Events Conditions
12:18 AM 67.3 °F - 67.3 °F 100% 29.95 in 0.8 mi SSW 3.5 mph - N/A   Mostly Cloudy
12:37 AM 68.2 °F - 68.2 °F 100% 29.95 in 0.2 mi SSW 3.5 mph - N/A Fog Fog
12:55 AM 68.4 °F - 68.4 °F 100% 29.96 in 1.2 mi Calm Calm - N/A   Mostly Cloudy
1:15 AM 67.6 °F - 67.6 °F 100% 29.96 in 0.2 mi Calm Calm - N/A Fog Fog
1:35 AM 67.1 °F - 67.1 °F 100% 29.95 in 0.2 mi Calm Calm - N/A Fog Fog
1:58 AM 67.3 °F - 67.3 °F 100% 29.95 in 0.2 mi Calm Calm - N/A Fog Fog
2:16 AM 68.9 °F - 68.9 °F 100% 29.95 in 0.5 mi WSW 4.6 mph - N/A Fog Fog
2:35 AM 68.9 °F - 68.9 °F 100% 29.95 in 0.2 mi WSW 5.8 mph - N/A Fog Fog
2:55 AM 69.3 °F - 69.3 °F 100% 29.95 in 0.2 mi Calm Calm - N/A Fog Fog
3:19 AM 69.4 °F - 69.4 °F 100% 29.95 in 0.5 mi WSW 3.5 mph - N/A Fog Fog
3:37 AM 69.4 °F - 69.4 °F 100% 29.95 in 2.0 mi Calm Calm - N/A   Overcast
3:55 AM 68.7 °F - 68.7 °F 100% 29.94 in 2.5 mi Calm Calm - N/A   Overcast
3:56 AM 68.7 °F - 68.7 °F 100% 29.94 in 2.5 mi Calm Calm - N/A   Overcast
4:15 AM 68.5 °F - 68.5 °F 100% 29.94 in 0.8 mi Calm Calm - N/A   Overcast
4:35 AM 68.0 °F - 68.0 °F 100% 29.93 in 1.0 mi Calm Calm - N/A   Overcast
4:58 AM 68.4 °F - 68.4 °F 100% 29.93 in 2.5 mi SSW 3.5 mph - N/A   Overcast
5:16 AM 68.5 °F - 68.5 °F 100% 29.92 in 2.5 mi Calm Calm - N/A   Overcast
5:35 AM 68.9 °F - 68.9 °F 100% 29.92 in 1.2 mi Calm Calm - N/A   Overcast
5:36 AM 68.9 °F - 68.9 °F 100% 29.92 in 1.2 mi Calm Calm - N/A   Overcast
5:55 AM 68.9 °F - 68.9 °F 100% 29.92 in 0.8 mi Calm Calm - N/A   Overcast
6:19 AM 68.9 °F - 68.9 °F 100% 29.92 in 0.2 mi Calm Calm - N/A Fog Fog
6:37 AM 68.7 °F - 68.7 °F 100% 29.91 in 0.2 mi Calm Calm - N/A Fog Fog
6:55 AM 68.5 °F - 68.5 °F 100% 29.90 in 0.2 mi Calm Calm - N/A Fog Fog
6:56 AM 68.7 °F - 68.7 °F 100% 29.90 in 0.2 mi Calm Calm - N/A Fog Fog
7:15 AM 68.5 °F - 68.5 °F 100% 29.90 in 0.2 mi Calm Calm - N/A Fog Fog
7:16 AM 68.5 °F - 68.5 °F 100% 29.90 in 0.2 mi Calm Calm - N/A Fog Fog
7:35 AM 68.5 °F - 68.5 °F 100% 29.89 in 0.2 mi Calm Calm - N/A Fog Fog
7:57 AM 68.5 °F - 68.5 °F 100% 29.89 in 0.2 mi Calm Calm - N/A Fog Fog
8:16 AM 68.9 °F - 68.9 °F 100% 29.88 in 0.2 mi Calm Calm - N/A Fog Fog
8:35 AM 68.9 °F - 68.9 °F 100% 29.89 in 0.2 mi SSW 4.6 mph - N/A Fog Fog
8:36 AM 68.9 °F - 68.9 °F 100% 29.89 in 0.2 mi SSW 3.5 mph - N/A Fog Fog
8:55 AM 69.3 °F - 69.3 °F 100% 29.92 in 0.2 mi WSW 5.8 mph - N/A Fog Fog
8:56 AM 69.1 °F - 69.1 °F 100% 29.92 in 0.2 mi WSW 5.8 mph - N/A Fog Fog
9:19 AM 70.5 °F - 70.5 °F 100% 29.93 in 3.0 mi West 5.8 mph - N/A   Overcast
9:36 AM 70.7 °F - 70.7 °F 100% 29.93 in 7.0 mi West 5.8 mph - N/A   Overcast
9:55 AM 72.5 °F - 72.5 °F 100% 29.92 in 10.0 mi West 5.8 mph - N/A   Overcast
9:56 AM 72.7 °F - 72.7 °F 100% 29.92 in 10.0 mi West 5.8 mph - N/A   Overcast
10:15 AM 72.7 °F - 72.7 °F 100% 29.93 in 10.0 mi West 8.1 mph - N/A   Overcast
10:16 AM 72.7 °F - 72.7 °F 100% 29.93 in 10.0 mi West 8.1 mph - N/A   Overcast
10:35 AM 73.8 °F - 72.7 °F 96% 29.93 in 10.0 mi West 4.6 mph - N/A   Overcast
10:58 AM 75.0 °F - 70.9 °F 87% 29.92 in 10.0 mi West 3.5 mph - N/A   Mostly Cloudy
11:16 AM 77.4 °F - 67.5 °F 71% 29.92 in 10.0 mi WNW 5.8 mph - N/A   Mostly Cloudy
11:36 AM 78.3 °F - 66.6 °F 67% 29.93 in 10.0 mi WNW 6.9 mph - N/A   Mostly Cloudy
11:55 AM 78.8 °F - 65.7 °F 64% 29.92 in 10.0 mi WNW 10.4 mph - N/A   Mostly Cloudy
12:19 PM 81.3 °F 82.7 °F 63.5 °F 55% 29.92 in 10.0 mi West 11.5 mph - N/A   Scattered Clouds
12:46 PM 82.4 °F 83.4 °F 62.6 °F 51% 29.92 in 10.0 mi WNW 10.4 mph 18.4 mph N/A   Scattered Clouds
1:45 PM 82.4 °F 82.9 °F 60.8 °F 48% 29.92 in 10.0 mi West 13.8 mph 18.4 mph N/A   Mostly Cloudy
2:06 PM 82.4 °F 82.9 °F 60.8 °F 48% 29.93 in 10.0 mi West 15.0 mph 18.4 mph N/A   Mostly Cloudy
2:24 PM 80.6 °F 81.5 °F 60.8 °F 51% 29.93 in 10.0 mi West 9.2 mph 16.1 mph N/A   Mostly Cloudy
3:06 PM 81.7 °F 82.7 °F 62.2 °F 52% 29.92 in 10.0 mi West 12.7 mph 19.6 mph N/A   Mostly Cloudy
3:15 PM 80.8 °F 81.9 °F 62.4 °F 53% 29.92 in 10.0 mi West 10.4 mph 18.4 mph N/A   Mostly Cloudy
3:16 PM 80.6 °F 81.8 °F 62.6 °F 54% 29.92 in 10.0 mi West 11.5 mph 18.4 mph N/A   Mostly Cloudy
3:35 PM 81.3 °F 82.6 °F 63.1 °F 54% 29.92 in 10.0 mi West 10.4 mph 17.3 mph N/A   Overcast
3:55 PM 80.8 °F 82.2 °F 63.7 °F 56% 29.92 in 10.0 mi WNW 10.4 mph - N/A   Mostly Cloudy
4:18 PM 78.3 °F - 64.4 °F 62% 29.93 in 10.0 mi West 12.7 mph 19.6 mph N/A   Mostly Cloudy
4:36 PM 78.1 °F - 64.0 °F 62% 29.93 in 10.0 mi WNW 12.7 mph - N/A   Mostly Cloudy
4:55 PM 77.9 °F - 63.3 °F 61% 29.93 in 10.0 mi WNW 9.2 mph - N/A   Mostly Cloudy
4:56 PM 77.9 °F - 63.3 °F 61% 29.93 in 10.0 mi WNW 8.1 mph - N/A   Mostly Cloudy
5:15 PM 75.4 °F - 62.2 °F 64% 29.94 in 10.0 mi NNW 16.1 mph - N/A   Overcast
5:16 PM 75.4 °F - 62.2 °F 64% 29.94 in 10.0 mi NNW 15.0 mph - N/A   Overcast
5:39 PM 74.7 °F - 62.6 °F 66% 29.94 in 10.0 mi NNW 12.7 mph - N/A   Scattered Clouds
5:57 PM 75.4 °F - 62.1 °F 63% 29.94 in 10.0 mi NNW 12.7 mph 18.4 mph N/A   Clear
6:15 PM 73.8 °F - 60.3 °F 63% 29.94 in 10.0 mi NNW 10.4 mph - N/A   Clear
6:35 PM 73.4 °F - 59.2 °F 61% 29.94 in 10.0 mi NNW 8.1 mph - N/A   Clear
6:55 PM 73.0 °F - 58.8 °F 61% 29.93 in 10.0 mi North 5.8 mph - N/A   Clear
6:59 PM 72.9 °F - 58.6 °F 61% 29.93 in 10.0 mi North 5.8 mph - N/A   Clear
7:18 PM 72.5 °F - 57.0 °F 58% 29.92 in 10.0 mi NNW 6.9 mph - N/A   Clear
7:36 PM 72.0 °F - 57.4 °F 60% 29.92 in 10.0 mi North 4.6 mph - N/A   Clear
7:55 PM 71.2 °F - 56.8 °F 60% 29.92 in 10.0 mi North 3.5 mph - N/A   Clear
8:15 PM 70.0 °F - 56.5 °F 62% 29.92 in 10.0 mi Calm Calm - N/A   Clear
8:16 PM 70.0 °F - 56.5 °F 62% 29.92 in 10.0 mi NNE 3.5 mph - N/A   Clear
8:39 PM 68.7 °F - 56.7 °F 65% 29.92 in 10.0 mi Calm Calm - N/A   Clear
8:57 PM 68.2 °F - 57.9 °F 70% 29.92 in 10.0 mi Calm Calm - N/A   Clear
9:15 PM 67.5 °F - 57.2 °F 70% 29.93 in 10.0 mi Calm Calm - N/A   Clear
9:35 PM 66.2 °F - 58.3 °F 76% 29.94 in 10.0 mi Calm Calm - N/A   Clear
9:55 PM 64.4 °F - 59.5 °F 84% 29.95 in 10.0 mi Calm Calm - N/A   Clear
10:00 PM 63.7 °F - 60.1 °F 88% 29.94 in 10.0 mi Calm Calm - N/A   Clear
10:18 PM 63.7 °F - 60.6 °F 90% 29.95 in 10.0 mi Calm Calm - N/A   Clear
10:36 PM 61.9 °F - 61.0 °F 97% 29.95 in 10.0 mi Calm Calm - N/A   Clear
10:55 PM 60.8 °F - 60.8 °F 100% 29.95 in 10.0 mi Calm Calm - N/A   Clear
11:15 PM 59.4 °F - 59.4 °F 100% 29.96 in 10.0 mi Calm Calm - N/A   Clear
11:39 PM 59.5 °F - 59.5 °F 100% 29.97 in 10.0 mi Calm Calm - N/A   Clear
11:57 PM 58.6 °F - 58.6 °F 100% 29.98 in 10.0 mi North 3.5 mph - N/A   Clear